Location: Kelshall
(52.0000°N, 0.0500°W)
Time: 00:40:11
(UTC+00:00)

USA 229 DEB - Pass Details

Date: 18 September 2020
Orbit: 971 x 1241 km, 63.4° (Epoch: 14 October)

Event Time Altitude Azimuth Distance (km) Brightness Sun altitude
Rises 18:40:29 0° 242° (WSW) 3,714 7.5 -5.9°
Reaches altitude 10° 18:43:03 10° 246° (WSW) 2,793 6.9 -6.3°
Maximum altitude 18:49:33 59° 326° (NW) 1,211 4.3 -7.3°
Drops below altitude 10° 18:56:30 10° 45° (NE) 2,984 5.7 -8.4°
Sets 18:59:20 0° 49° (NE) 3,986 6.3 -8.8°
